ATLAS 5 CENTAUR DEB, 43983

Orbit data source: Space-Track

ATLAS 5 CENTAUR DEB, 43983 is space debris in HEO originally from a launch on Wed, 17 Sep 2014 UTC launched from the Air Force Eastern Test Range (AFETR). Debris objects in space refer to the collection of defunct objects orbiting the Earth. Examples of debris include non-operational satellites, rocket bodies, and fragments generated from explosions, collisions, or faulty payload assembly.

Loading next visibility...
ATLAS 5 CENTAUR DEB details
Identifier
43983, 2014-055AN
Orbit
HEO
Last TLE update3 days ago
Origin
Flag of USULA (US)
ManufacturerUnknown
MissionSpacecraft
Bus & MotorUnknown
MassUnknown
Launch date (UTC)
2014-09-17 (10 years ago)
Launch vehicleUnknown
Launch site
Air Force Eastern Test Range (AFETR)
Object type
Payload
Rocket body
Debris
Shape & HBRUnknown
Radar Cross SectionSmall (<0.1 m²)

Expand to show TLE details & history

TLE from 3 days ago
0 ATLAS 5 CENTAUR DEB
1 43983U 14055AN  24337.89666040 -.00000015  00000-0  00000+0 0  9996
2 43983  19.8672 174.6952 5013939 109.8780 309.5136  1.90082584 43303
Epoch: 2024-12-02T21:31Z
Definitive object data (Epoch: 2024-12-02T21:31:11.458Z)
Latitude-0.00002°
Longitude139.76275°
Altitude18,411.883 km
Speed4.205 km/s
True Right ascension11h 39m 05s
True Declination0° 00' 00"
Sunlit
Object was in daylight at TLE epoch
Visualization TLE readout
Latitude-14.91351°
Longitude91.97507°
Altitude32,476.484 km
Speed2.457 km/s
Apparent Right ascension08h 33m 11s
Apparent Declination-23° 15' 24"
Sunlit
Object is in daylight
Visualization observer readout
Local Sidereal Time07:52:46
Azimuth169.657° S
Elevation26.128°
Doppler factor1
Orbital elements
Apogee altitude34,955.227 km
Perigee altitude7,348.486 km
Semi-major axis27,529.993 km
Eccentricity0.5013939
Inclination19.8672°
RAAN174.6952°
Arg. of periapsis109.878°
True anomaly250.24621°
Mean anomaly309.5136°
Eccentric anomaly281.34741°
Mean motion0.47515 °/min
BSTARUnknown
Orbital period757.65 mins
Loading maneuver chart data...

ATLAS 5 CENTAUR DEB Visibility forecast

Observer location: undefined°, undefined

Span
Click to sort rows by Start time (UTC) header in descending order
Start Az.
Max El. time (UTC)
Max El. Az.
Max El.
End time (UTC)
End Az.
241 mins2024-12-05 09:54:28.333Z169.661° S2024-12-05 12:51:28.333Z150.795° SSE30.483°2024-12-05 13:55:28.333Z95.424° ESE
380 mins2024-12-06 03:34:28.333Z247.042° WSW2024-12-06 09:54:28.333Z187.792° SSW22.043°2024-12-06 09:54:28.333Z187.792° SSW
|